To NAV CANADA Home Page Login to a new session Search on AWWS site Feedback and Comments Disclaimer Vers la page française équivalente Tips FAQ What's new on the site To the Forecasts and Observations / NOTAM section To "File a Flight Plan" website Publications and other links Update of the User's profile FIC Telephone Numbers My Weather Data Folder Route Weather Data Regional Weather Data Local Weather Data To the Forecasts and Observations / NOTAM section
Request Generated 10/17/2017 at 01:48:58 UTC . Weather information available at that time is displayed.

METAR/TAF

PAULATUK/PAULATUK (NORA ALIQATCHIALUK RUBEN)/NT    

LWIS CYPC 170100Z AUTO 23019KT M06/M10 A2949=
LWIS CYPC 170000Z AUTO 23023KT M06/M10 A2949=
METAR CYPC 162300Z 23024KT 15SM FEW025 SCT120 BKN210 M06/M10 A2949
RMK SC1AC2CI4 -5.4/-7.2 LAST STFD OBS/NEXT 171300 UTC SLP987=

*** REMARK        : Forecast period has ended; this was the last TAF issued
*** REMARQUE : La période de prévision est échue; ceci était le dernier TAF qui a été émis
TAF CYPC 161838Z 1619/1623 23022KT P6SM BKN025 OVC090 TEMPO 1619/1621
5SM -SHSN BKN020
FM162100 23022KT 6SM -SN BKN025 TEMPO 1621/1623 3SM -SHSN BKN020
RMK NXT FCST WILL BE ISSUED AT 171445Z=
Your time UTC time
Weather data provided by Environment Canada and NAV CANADA